Burley, ID

4:23 AM MDT on April 24, 2017 (GMT -0600)
Burley Municipal

Weather History for KBYI - January, 2013

Change the Weather History Date:

Thursday, January 3, 2013

  Actual Average Record
Temperature  
Mean Temperature 3 °F 26 °F  
Max Temperature 18 °F 34 °F 50 °F (2012)
Min Temperature -13 °F 18 °F -20 °F (1949)
Degree Days  
Heating Degree Days 62 39  
Month to date heating degree days 189 117  
Since 1 July heating degree days 2536 2997  
Cooling Degree Days 0 0  
Month to date cooling degree days 0 0  
Year to date cooling degree days 0 0  
Moisture  
Dew Point -1 °F    
Average Humidity 77    
Maximum Humidity 87    
Minimum Humidity 67    
Precipitation  
Precipitation 0.00 in 0.03 in 0.20 in (2002)
Month to date precipitation T 0.10  
Year to date precipitation T 0.10  
Sea Level Pressure  
Sea Level Pressure 30.60 in    
Wind  
Wind Speed 6 mph (NE)    
Max Wind Speed 16 mph    
Max Gust Speed 21 mph    
Visibility 9 miles    
Events Snow    
T = Trace of Precipitation, MM = Missing Value Source: NWS Daily Summary

Daily Weather History Graph

Daily Weather History Graph

Search for Another Location

Airport or City:

Trip Planner

Search our weather history database for the weather conditions in past years. The results will help you decide how hot, cold, wet, or windy it might be!

Date:

Astronomy

Jan. 03, 2013 Rise Set
Actual Time 8:05 AM MST 5:14 PM MST
Civil Twilight 7:33 AM MST 5:46 PM MST
Nautical Twilight 6:57 AM MST 6:21 PM MST
Astronomical Twilight 6:23 AM MST 6:56 PM MST
Moon No Moon Rise 11:10 AM MST (1/3)
Length of Visible Light 10h 13m
Length of Day
9h 09m
Waning Gibbous, 65% of the Moon is Illuminated
Jan 3
Waning Gibbous
Jan 4
Last Quarter
Jan 11
New
Jan 18
First Quarter
Jan 26
Full

Hourly Weather History & Observations

Time (MST) Temp. Windchill Dew Point Humidity Pressure Visibility Wind Dir Wind Speed Gust Speed Precip Events Conditions
12:53 AM -9.9 °F - -14.1 °F 82% 30.69 in 8.0 mi Calm Calm - 0.00 in Snow Light Snow
1:53 AM -4.0 °F - -7.1 °F 87% 30.65 in 7.0 mi Calm Calm - 0.00 in   Clear
2:53 AM -2.0 °F -15.4 °F -6.0 °F 83% 30.63 in 9.0 mi East 6.9 mph - N/A   Clear
3:53 AM -9.9 °F - -15.0 °F 78% 30.66 in 7.0 mi Calm Calm - N/A   Clear
4:53 AM -9.9 °F - -14.1 °F 82% 30.66 in 6.0 mi Calm Calm - 0.00 in Snow Light Snow
5:53 AM -4.0 °F -12.4 °F -7.1 °F 87% 30.64 in 10.0 mi East 3.5 mph - N/A   Clear
6:53 AM -8.0 °F -19.2 °F -11.9 °F 83% 30.66 in 9.0 mi East 4.6 mph - N/A   Clear
7:53 AM -2.9 °F -13.3 °F -8.0 °F 79% 30.65 in 10.0 mi ENE 4.6 mph - N/A   Clear
8:53 AM 1.0 °F -14.0 °F -2.9 °F 83% 30.66 in 10.0 mi NE 9.2 mph - 0.00 in   Clear
9:53 AM 3.0 °F -11.5 °F -2.0 °F 80% 30.65 in 10.0 mi ENE 9.2 mph - 0.00 in   Clear
10:53 AM 5.0 °F -5.6 °F -0.0 °F 80% 30.65 in 10.0 mi NNE 5.8 mph - N/A   Clear
11:53 AM 9.0 °F -4.2 °F 3.0 °F 77% 30.61 in 10.0 mi NE 9.2 mph - N/A   Clear
12:53 PM 12.9 °F 1.6 °F 6.1 °F 74% 30.59 in 10.0 mi NE 8.1 mph - N/A   Clear
1:53 PM 15.1 °F 1.8 °F 8.1 °F 74% 30.55 in 10.0 mi NE 11.5 mph - N/A   Clear
2:53 PM 16.0 °F 5.3 °F 9.0 °F 74% 30.54 in 10.0 mi NE 8.1 mph - N/A   Clear
3:53 PM 17.1 °F 8.7 °F 9.0 °F 71% 30.55 in 10.0 mi NE 5.8 mph - N/A   Clear
4:53 PM 17.1 °F 6.6 °F 9.0 °F 71% 30.54 in 10.0 mi NE 8.1 mph - N/A   Clear
5:53 PM 12.0 °F 4.1 °F 7.0 °F 80% 30.55 in 10.0 mi NNE 4.6 mph - N/A   Clear
6:53 PM 10.0 °F 1.8 °F 5.0 °F 80% 30.58 in 10.0 mi NNE 4.6 mph - N/A   Clear
7:53 PM 7.0 °F -3.3 °F 1.9 °F 80% 30.58 in 10.0 mi East 5.8 mph - N/A   Clear
8:53 PM 8.1 °F -7.0 °F 3.0 °F 80% 30.56 in 10.0 mi NE 11.5 mph - N/A   Clear
9:53 PM 10.9 °F -2.6 °F 3.9 °F 73% 30.55 in 10.0 mi NE 10.4 mph - N/A   Clear
10:53 PM 7.0 °F -3.3 °F 1.0 °F 77% 30.56 in 10.0 mi ENE 5.8 mph - N/A   Clear
11:53 PM 7.0 °F -4.5 °F 1.0 °F 77% 30.56 in 10.0 mi NE 6.9 mph - N/A   Clear